timestamp,wind_dir_avg,wind_spd_avg,wind_spd_max_dir,wind_spd_gust,battery_voltage,lat,long
2023-12-22 00:04:00+00:00,69.0,5.28,66.0,6.48,12.41,47.59359,-54.27349
2023-12-22 00:14:00+00:00,67.0,4.95,64.0,6.0,12.41,47.59359,-54.27349
2023-12-22 00:24:00+00:00,58.0,5.11,61.0,5.68,12.41,47.59359,-54.27349
2023-12-22 00:34:00+00:00,63.0,4.76,58.0,5.63,12.41,47.59359,-54.27349
2023-12-22 00:44:00+00:00,61.0,4.68,62.0,5.03,12.41,47.59359,-54.27349
2023-12-22 00:54:00+00:00,74.0,4.96,89.0,7.89,12.41,47.59359,-54.27349
2023-12-22 01:04:00+00:00,76.0,3.92,86.0,5.75,12.41,47.59359,-54.27349
2023-12-22 01:14:00+00:00,74.0,4.0,50.0,5.33,12.33,47.59359,-54.27349
2023-12-22 01:24:00+00:00,77.0,3.83,77.0,4.94,12.33,47.59359,-54.27349
2023-12-22 01:34:00+00:00,84.0,3.21,115.0,4.56,12.33,47.59359,-54.27349
2023-12-22 01:44:00+00:00,79.0,3.7,68.0,4.9,12.33,47.59359,-54.27349
2023-12-22 01:54:00+00:00,73.0,4.52,70.0,5.34,12.33,47.59359,-54.27349
2023-12-22 02:04:00+00:00,77.0,4.6,72.0,6.15,12.33,47.59359,-54.27349
2023-12-22 02:14:00+00:00,77.0,3.26,78.0,5.57,12.33,47.59359,-54.27349
2023-12-22 02:24:00+00:00,75.0,3.11,60.0,4.71,12.33,47.59359,-54.27349
2023-12-22 02:34:00+00:00,71.0,4.1,67.0,4.78,12.33,47.59359,-54.27349
2023-12-22 02:44:00+00:00,67.0,4.71,67.0,5.07,12.33,47.59359,-54.27349
2023-12-22 02:54:00+00:00,55.0,4.66,59.0,6.23,12.33,47.59359,-54.27349
2023-12-22 03:04:00+00:00,38.0,5.49,52.0,6.44,12.33,47.59359,-54.27349
2023-12-22 03:14:00+00:00,34.0,6.2,43.0,7.78,12.33,47.59359,-54.27349
2023-12-22 03:24:00+00:00,44.0,6.48,53.0,8.33,12.33,47.59359,-54.27349
2023-12-22 03:34:00+00:00,44.0,7.48,48.0,9.7,12.33,47.59359,-54.27349
2023-12-22 03:44:00+00:00,47.0,9.6,47.0,10.84,12.33,47.59359,-54.27349
2023-12-22 03:54:00+00:00,45.0,10.95,45.0,12.24,12.33,47.59359,-54.27349
2023-12-22 04:04:00+00:00,45.0,10.74,46.0,11.54,12.33,47.59359,-54.27349
2023-12-22 04:14:01+00:00,47.0,9.88,44.0,11.28,12.33,47.59359,-54.27349
2023-12-22 04:24:01+00:00,50.0,7.55,41.0,9.56,12.33,47.59359,-54.27349
2023-12-22 04:34:01+00:00,49.0,10.88,47.0,12.09,12.33,47.59359,-54.27349
2023-12-22 04:44:01+00:00,51.0,10.69,52.0,12.11,12.33,47.59359,-54.27349
2023-12-22 04:54:01+00:00,48.0,10.62,44.0,12.16,12.33,47.59359,-54.27349
2023-12-22 05:04:01+00:00,44.0,10.16,42.0,11.47,12.33,47.59359,-54.27349
2023-12-22 05:14:00+00:00,40.0,10.69,39.0,11.89,12.25,47.59359,-54.27349
2023-12-22 05:24:00+00:00,37.0,10.23,44.0,11.4,12.25,47.59359,-54.27349
2023-12-22 05:34:00+00:00,35.0,9.57,34.0,10.5,12.25,47.59359,-54.27349
2023-12-22 05:44:00+00:00,38.0,10.57,40.0,11.68,12.25,47.59359,-54.27349
2023-12-22 05:54:00+00:00,41.0,10.09,42.0,10.99,12.25,47.59359,-54.27349
2023-12-22 06:04:00+00:00,37.0,9.58,35.0,10.2,12.25,47.59359,-54.27349
2023-12-22 06:14:00+00:00,39.0,8.42,37.0,9.11,12.25,47.59359,-54.27349
2023-12-22 06:24:00+00:00,36.0,9.96,38.0,10.56,12.25,47.59359,-54.27349
2023-12-22 06:34:00+00:00,38.0,9.71,38.0,10.91,12.25,47.59359,-54.27349
2023-12-22 06:44:00+00:00,38.0,9.77,34.0,10.76,12.25,47.59359,-54.27349
2023-12-22 06:54:00+00:00,39.0,9.77,38.0,10.52,12.25,47.59359,-54.27349
2023-12-22 07:04:00+00:00,39.0,10.12,42.0,10.97,12.25,47.59359,-54.27349
2023-12-22 07:14:00+00:00,36.0,9.44,32.0,10.28,12.17,47.59359,-54.27349
2023-12-22 07:24:00+00:00,35.0,10.98,34.0,12.3,12.17,47.59359,-54.27349
2023-12-22 07:34:00+00:00,37.0,10.33,36.0,11.92,12.17,47.59359,-54.27349
2023-12-22 07:44:00+00:00,43.0,9.4,44.0,11.39,12.17,47.59359,-54.27349
2023-12-22 07:54:00+00:00,38.0,9.86,45.0,10.83,12.17,47.59359,-54.27349
2023-12-22 08:04:00+00:00,37.0,9.47,37.0,10.43,12.17,47.59359,-54.27349
2023-12-22 08:14:00+00:00,35.0,10.69,35.0,11.72,12.17,47.59359,-54.27349
2023-12-22 08:24:00+00:00,35.0,11.14,35.0,12.48,12.17,47.59359,-54.27349
2023-12-22 08:34:00+00:00,33.0,10.44,34.0,11.76,12.17,47.59359,-54.27349
2023-12-22 08:44:00+00:00,32.0,11.18,32.0,12.15,12.17,47.59359,-54.27349
2023-12-22 08:54:00+00:00,36.0,10.76,36.0,12.07,12.17,47.59359,-54.27349
2023-12-22 09:04:00+00:00,40.0,10.8,41.0,12.09,12.17,47.59359,-54.27349
2023-12-22 09:14:00+00:00,37.0,12.11,41.0,13.58,12.17,47.59359,-54.27349
2023-12-22 09:24:00+00:00,34.0,9.65,32.0,10.63,12.17,47.59359,-54.27349
2023-12-22 09:34:00+00:00,36.0,8.47,38.0,9.84,12.17,47.59359,-54.27349
2023-12-22 09:44:00+00:00,40.0,7.93,38.0,8.93,12.17,47.59359,-54.27349
2023-12-22 09:54:00+00:00,41.0,10.0,50.0,11.68,12.17,47.59359,-54.27349
2023-12-22 10:04:00+00:00,40.0,10.4,45.0,11.21,12.17,47.59359,-54.27349
2023-12-22 10:14:00+00:00,35.0,11.5,27.0,13.83,12.17,47.59359,-54.27349
2023-12-22 10:24:00+00:00,37.0,10.29,36.0,11.66,12.17,47.59359,-54.27349
2023-12-22 10:34:00+00:00,33.0,9.61,36.0,10.23,12.17,47.59359,-54.27349
2023-12-22 10:44:00+00:00,35.0,9.39,38.0,10.27,12.17,47.59359,-54.27349
2023-12-22 10:54:00+00:00,32.0,9.79,35.0,11.0,12.17,47.59359,-54.27349
2023-12-22 11:04:00+00:00,36.0,9.47,42.0,10.24,12.17,47.59359,-54.27349
2023-12-22 11:14:00+00:00,33.0,8.55,39.0,9.56,12.09,47.59359,-54.27349
2023-12-22 11:24:00+00:00,29.0,7.95,27.0,8.49,12.09,47.59359,-54.27349
2023-12-22 11:34:00+00:00,28.0,8.58,31.0,9.38,12.09,47.59359,-54.27349
2023-12-22 11:44:00+00:00,25.0,8.57,37.0,10.33,12.09,47.59359,-54.27349
2023-12-22 11:54:00+00:00,20.0,8.18,23.0,8.85,12.09,47.59359,-54.27349
2023-12-22 12:04:00+00:00,28.0,9.0,31.0,10.48,12.09,47.59359,-54.27349
2023-12-22 12:14:00+00:00,26.0,9.32,41.0,10.8,12.17,47.59359,-54.27349
2023-12-22 12:24:00+00:00,22.0,8.65,22.0,9.45,12.17,47.59359,-54.27349
2023-12-22 12:34:00+00:00,22.0,9.63,19.0,11.08,12.17,47.59359,-54.27349
2023-12-22 12:44:00+00:00,24.0,10.77,34.0,12.57,12.17,47.59359,-54.27349
2023-12-22 12:54:00+00:00,24.0,10.56,24.0,11.86,12.17,47.59359,-54.27349
2023-12-22 13:04:00+00:00,22.0,9.39,41.0,12.16,12.17,47.59359,-54.27349
2023-12-22 13:14:00+00:00,28.0,9.66,30.0,10.92,12.33,47.59359,-54.27349
2023-12-22 13:24:00+00:00,24.0,10.55,28.0,12.19,12.33,47.59359,-54.27349
2023-12-22 13:34:00+00:00,24.0,11.06,18.0,13.33,12.33,47.59359,-54.27349
2023-12-22 13:44:00+00:00,24.0,10.41,34.0,12.27,12.33,47.59359,-54.27349
2023-12-22 13:54:00+00:00,22.0,10.78,18.0,12.3,12.33,47.59359,-54.27349
2023-12-22 14:04:00+00:00,23.0,12.52,28.0,14.81,12.33,47.59359,-54.27349
2023-12-22 14:14:00+00:00,25.0,12.02,25.0,13.69,12.41,47.59359,-54.27349
2023-12-22 14:24:00+00:00,20.0,13.36,22.0,14.49,12.41,47.59359,-54.27349
2023-12-22 14:34:00+00:00,18.0,11.15,20.0,13.02,12.41,47.59359,-54.27349
2023-12-22 14:44:00+00:00,22.0,11.32,18.0,13.05,12.41,47.59359,-54.27349
2023-12-22 14:54:00+00:00,22.0,12.06,20.0,14.19,12.41,47.59359,-54.27349
2023-12-22 15:04:00+00:00,26.0,10.6,25.0,11.65,12.41,47.59359,-54.27349
2023-12-22 15:14:00+00:00,22.0,11.64,18.0,13.44,12.65,47.59359,-54.27349
2023-12-22 15:24:00+00:00,15.0,11.34,16.0,13.14,12.65,47.59359,-54.27349
2023-12-22 15:34:00+00:00,20.0,12.7,20.0,14.6,12.65,47.59359,-54.27349
2023-12-22 15:44:00+00:00,21.0,13.32,19.0,16.32,12.65,47.59359,-54.27349
2023-12-22 15:54:00+00:00,23.0,12.2,22.0,14.3,12.65,47.59359,-54.27349
2023-12-22 16:04:00+00:00,24.0,12.13,22.0,16.01,12.65,47.59359,-54.27349
2023-12-22 16:14:00+00:00,22.0,13.0,18.0,14.6,12.73,47.59359,-54.27349
2023-12-22 16:24:00+00:00,22.0,13.78,27.0,15.2,12.73,47.59359,-54.27349
2023-12-22 16:34:00+00:00,18.0,11.78,15.0,13.98,12.73,47.59359,-54.27349
2023-12-22 16:44:00+00:00,16.0,11.89,16.0,15.89,12.73,47.59359,-54.27349
2023-12-22 16:54:00+00:00,15.0,11.34,17.0,13.92,12.73,47.59359,-54.27349
2023-12-22 17:04:00+00:00,17.0,11.93,16.0,13.55,12.73,47.59359,-54.27349
2023-12-22 17:14:00+00:00,356.0,10.56,352.0,13.56,12.73,47.59359,-54.27349
2023-12-22 17:24:00+00:00,18.0,12.65,25.0,15.18,12.73,47.59359,-54.27349
2023-12-22 17:34:00+00:00,2.0,11.02,358.0,12.76,12.73,47.59359,-54.27349
2023-12-22 17:44:00+00:00,7.0,11.78,17.0,13.64,12.73,47.59359,-54.27349
2023-12-22 17:54:00+00:00,1.0,11.17,355.0,14.75,12.73,47.59359,-54.27349
2023-12-22 18:04:00+00:00,358.0,13.53,355.0,18.95,12.73,47.59359,-54.27349
2023-12-22 18:14:00+00:00,358.0,13.74,0.0,16.55,12.57,47.59359,-54.27349
2023-12-22 18:24:00+00:00,1.0,15.52,358.0,18.25,12.57,47.59359,-54.27349
2023-12-22 18:34:00+00:00,0.0,13.09,3.0,15.33,12.57,47.59359,-54.27349
2023-12-22 18:44:00+00:00,350.0,13.51,332.0,15.62,12.57,47.59359,-54.27349
2023-12-22 18:54:00+00:00,351.0,12.38,359.0,14.88,12.57,47.59359,-54.27349
2023-12-22 19:04:00+00:00,355.0,13.6,351.0,15.01,12.57,47.59359,-54.27349
2023-12-22 19:14:00+00:00,350.0,13.04,349.0,15.49,12.33,47.59359,-54.27349
2023-12-22 19:24:00+00:00,353.0,15.45,354.0,18.12,12.33,47.59359,-54.27349
2023-12-22 19:34:00+00:00,350.0,14.22,353.0,18.07,12.33,47.59359,-54.27349
2023-12-22 19:44:00+00:00,333.0,16.46,327.0,18.45,12.33,47.59359,-54.27349
2023-12-22 19:54:00+00:00,347.0,15.48,335.0,17.87,12.33,47.59359,-54.27349
2023-12-22 20:04:00+00:00,345.0,14.66,334.0,19.13,12.33,47.59359,-54.27349
2023-12-22 20:14:00+00:00,342.0,15.05,337.0,19.26,12.17,47.59359,-54.27349
2023-12-22 20:24:00+00:00,337.0,16.05,342.0,20.14,12.17,47.59359,-54.27349
2023-12-22 20:34:00+00:00,340.0,14.94,337.0,17.46,12.17,47.59359,-54.27349
2023-12-22 20:44:00+00:00,338.0,15.63,340.0,18.78,12.17,47.59359,-54.27349
2023-12-22 20:54:00+00:00,343.0,15.11,343.0,17.66,12.17,47.59359,-54.27349
2023-12-22 21:04:00+00:00,341.0,15.1,349.0,18.96,12.17,47.59359,-54.27349
2023-12-22 21:14:00+00:00,336.0,15.29,346.0,18.88,12.09,47.59359,-54.27349
2023-12-22 21:24:00+00:00,338.0,15.09,343.0,18.75,12.09,47.59359,-54.27349
2023-12-22 21:34:00+00:00,343.0,13.92,348.0,16.25,12.09,47.59359,-54.27349
2023-12-22 21:44:00+00:00,338.0,14.87,337.0,17.68,12.09,47.59359,-54.27349
2023-12-22 21:54:00+00:00,340.0,15.93,340.0,18.62,12.09,47.59359,-54.27349
2023-12-22 22:04:00+00:00,336.0,17.65,336.0,21.44,12.09,47.59359,-54.27349
2023-12-22 22:14:00+00:00,333.0,17.85,330.0,22.38,12.09,47.59359,-54.27349
2023-12-22 22:24:00+00:00,337.0,16.36,339.0,20.09,12.09,47.59359,-54.27349
2023-12-22 22:34:00+00:00,334.0,18.08,339.0,21.52,12.09,47.59359,-54.27349
2023-12-22 22:44:00+00:00,331.0,17.06,334.0,19.95,12.09,47.59359,-54.27349
2023-12-22 22:54:00+00:00,332.0,15.85,339.0,18.99,12.09,47.59359,-54.27349
2023-12-22 23:04:00+00:00,338.0,15.55,337.0,17.86,12.09,47.59359,-54.27349
2023-12-22 23:14:00+00:00,340.0,16.64,343.0,21.43,12.01,47.59359,-54.27349
2023-12-22 23:24:00+00:00,343.0,16.42,344.0,20.16,12.01,47.59359,-54.27349
2023-12-22 23:34:00+00:00,341.0,18.19,339.0,22.24,12.01,47.59359,-54.27349
2023-12-22 23:44:00+00:00,337.0,15.74,339.0,19.01,12.01,47.59359,-54.27349
2023-12-22 23:54:00+00:00,346.0,17.32,347.0,19.83,12.01,47.59359,-54.27349
